Flag for Canada Weather past 2 weeks in London, Ontario, Canada

Now
63 °F

Partly sunny.


Feels Like: 63 °F
Forecast: 50 / 71 °F
Wind: 8 mph from West

Location: London Weather Station

Current Time: Jul 29, 2014 at 10:30:03 AM

Latest Report: Jul 29, 2014 at 10:00 AM


Visibility: 15 mi

Pressure: 29.98 "Hg

Humidity: 73%

Dew point: 54 °F

Location of LondonLocation

Historic Weather in London — Graph

°F

London temperature yesterday

Maximum temperature yesterday: 66 °F (at 2:00 PM)
Minimum temperature yesterday: 54 °F (at 11:00 PM)
Average temperature yesterday: 60 °F

Past Weeks' High & Low Weather Summary

 TemperatureHumidityPressure
High82 °F (Jul 21, 5:00 PM)100% (Jul 15, 1:00 AM)30.25 "Hg (Jul 15, 1:00 AM)
Low48 °F (Jul 17, 5:00 AM)43% (Jul 17, 1:00 PM)29.59 "Hg (Jul 27, 7:00 PM)
Average65 °F80%29.97 "Hg
* Reported Jul 14 9:00 AM — Jul 29 9:00 AM, London, Weather by CustomWeather, © 2014

Note: Actual official high and low records may vary slightly from our data, if they occured in-between our weather recording intervals... More about our weather records

Advertising

London weather history for previous 24 hours

 ConditionsComfort  
Time TempWeatherWind HumidityBarometerVisibility
9:00 AM
Jul 29
59 °FPassing clouds.6 mph82%29.98 "Hg15 mi
8:00 AM55 °FPartly sunny.5 mph88%29.97 "Hg15 mi
7:00 AM55 °FPassing clouds.3 mph88%29.96 "Hg15 mi
6:00 AM55 °FOvercast.2 mph88%29.95 "Hg15 mi
5:00 AM54 °FCool.2 mph94%29.94 "Hg15 mi
4:00 AM54 °FPassing clouds.3 mph94%29.93 "Hg15 mi
3:00 AM52 °FPassing clouds.3 mph94%29.94 "Hg15 mi
2:00 AM54 °FPassing clouds.5 mph88%29.94 "Hg15 mi
1:00 AM54 °FPassing clouds.8 mph88%29.94 "Hg15 mi
12:00 AM54 °FPassing clouds.7 mph88%29.94 "Hg15 mi
11:00 PM
Jul 28
54 °FPassing clouds.7 mph88%29.95 "Hg15 mi
10:00 PM55 °FPassing clouds.8 mph82%29.95 "Hg15 mi
9:00 PM55 °FMore clouds than sun.10 mph77%29.94 "Hg15 mi
8:00 PM57 °FPartly sunny.9 mph72%29.93 "Hg15 mi
7:00 PM57 °FOvercast.14 mph72%29.93 "Hg15 mi
6:00 PM59 °FBroken clouds.15 mph72%29.91 "Hg15 mi
5:00 PM61 °FBroken clouds.14 mph68%29.89 "Hg15 mi
4:00 PM63 °FBroken clouds.17 mph68%29.87 "Hg15 mi
3:00 PM64 °FBroken clouds.23 mph64%29.85 "Hg15 mi
2:00 PM66 °FMostly cloudy.17 mph68%29.83 "Hg15 mi
1:00 PM64 °FMostly cloudy.17 mph73%29.83 "Hg15 mi
12:00 PM64 °FMostly cloudy.15 mph78%29.81 "Hg15 mi
11:00 AM61 °FMostly cloudy.10 mph88%29.80 "Hg15 mi
10:00 AM57 °FSprinkles. Fog.15 mph94%29.78 "Hg5 mi
Weather by CustomWeather, © 2014

See weather overviewHow to use our weather pages